This is the latest recevied weather packets stored in our database for station/object I1SXT-13. If no packets are shown the sender has not sent any weather packets the latest 10 day(s).
| Time | Temp. | Humidity | Pressure | Rain* | Wind** | Luminosity | Snow |
|---|---|---|---|---|---|---|---|
| 1777913669 | 18.33° C | 71% | 1017.7 hPa | 0 mm | - | - | - |
| 1777913364 | 18.33° C | 69% | 1018.2 hPa | 0 mm | - | - | - |
| 1777913068 | 18.33° C | 68% | 1018 hPa | 0 mm | - | - | - |
| 1777912764 | 18.33° C | 71% | 1018.6 hPa | 0 mm | - | - | - |
| 1777912466 | 18.33° C | 72% | 1019.1 hPa | 0 mm | - | - | - |
| 1777912169 | 18.33° C | 72% | 1019 hPa | 0 mm | - | - | - |
| 1777911865 | 18.33° C | 71% | 1018.1 hPa | 0 mm | - | - | - |
| 1777911568 | 18.33° C | 71% | 1017.9 hPa | 0 mm | - | - | - |
| 1777911264 | 18.33° C | 70% | 1018.2 hPa | 0 mm | - | - | - |
| 1777910967 | 18.33° C | 72% | 1018.2 hPa | 0 mm | - | - | - |
| 1777910366 | 18.89° C | 68% | 1017.7 hPa | 0 mm | - | - | - |
| 1777910068 | 19.44° C | 68% | 1018.4 hPa | 0 mm | - | - | - |
| 1777909764 | 19.44° C | 68% | 1019.1 hPa | 0 mm | - | - | - |
| 1777909467 | 18.89° C | 68% | 1018 hPa | 0 mm | - | - | - |
| 1777909170 | 19.44° C | 68% | 1018.4 hPa | 0 mm | - | - | - |
| 1777908866 | 19.44° C | 67% | 1019.2 hPa | 0 mm | - | - | - |
| 1777908569 | 20° C | 67% | 1018 hPa | 0 mm | - | - | - |
| 1777908265 | 19.44° C | 67% | 1018.1 hPa | 0 mm | - | - | - |
| 1777907968 | 19.44° C | 68% | 1017.8 hPa | 0 mm | - | - | - |
| 1777907664 | 18.89° C | 69% | 1018.2 hPa | 0 mm | - | - | - |
| 1777907366 | 19.44° C | 68% | 1018.1 hPa | 0 mm | - | - | - |
| 1777906765 | 20° C | 64% | 1018.4 hPa | 0 mm | - | - | - |
| 1777906468 | 20° C | 66% | 1018.5 hPa | 0 mm | - | - | - |
| 1777906164 | 19.44° C | 67% | 1018.9 hPa | 0 mm | - | - | - |
| 1777905867 | 18.89° C | 67% | 1018.1 hPa | 0 mm | - | - | - |
* Rain since midnight (hover to see other rain measurements)
** Current wind speed in m/s (hover to see current wind gust speed)